Location: Ch�tillon
(48.8024°N, 2.2935°E)
Time: 21:22:06
(UTC+00:00)

CAS-4A - Pass Details

Date: 12 July 2022
Orbit: 522 x 537 km, 43.0° (Epoch: 07 August)

Event Time Altitude Azimuth Distance (km) Brightness Sun altitude
Rises 23:25:09 0° 259° (WSW) 2,642 ? -19.0°
Reaches altitude 10° 23:27:30 10° 250° (WSW) 1,753 ? -19.0°
Enters shadow 23:28:02 13° 247° (WSW) 1,561 ? -19.1°
